CAPE
410 603 551 458 590 657 393 559 626 652 213 56 481 608 496 491 285 797 1384 1724 1768 1659 813 542 689 977 1146 1359 1343 1547 1402 1339 1261 1250 1153 1233 1104 907 630 700 694 489 647
368 420 491 589 604 482 344 468 718 471 100 44 116 690 447 506 425 833 1187 1649 2110 2039 1540 1059 796 672 842 875 941 769 1137 1261 1409 1380 1171 1283 1246 1171 1098 1135 1035 988 1109
559 614 615 572 583 540 417 464 243 160 49 36 92 391 438 182 210 695 896 1154 1677 1738 1636 1415 1354 1241 1420 1406 1230 1232 1067 586 583 765 999 1000 1171 1222 1256 1327 1211 1154 1324
669 573 782 808 546 578 649 835 547 155 50 36 48 81 136 36 36 254 535 745 1161 1398 1910 1839 1626 1662 1539 1500 1583 1514 1448 1454 1392 1593 1586 1544 1404 1396 1374 1384 1220 1209 1168
639 675 823 895 692 856 713 853 598 390 97 83 33 46 42 45 42 58 117 209 429 731 1053 1510 1730 1695 1435 1081 1025 1012 1363 1690 1680 1512 1499 1575 1322 1321 1360 1268 1198 1168 1165
1032 490 645 686 623 941 763 388 481 195 158 63 30 36 52 61 50 92 120 45 128 347 562 642 752 751 1123 1177 1435 1218 1108 1081 1200 1123 1212 1174 1187 1069 1063 796 748 754 799
1115 736 585 465 734 830 613 341 43 19 54 51 32 25 32 49 46 83 75 149 72 99 121 286 351 409 503 1183 1018 1059 837 789 861 960 955 979 1031 1008 792 601 554 441 321
1288 1175 799 798 903 804 701 413 197 82 9 7 23 19 21 14 12 44 90 148 133 85 93 78 128 147 290 603 460 785 795 846 1107 802 653 506 333 133 19 0 0 0 0
935 986 851 741 831 930 751 589 563 40 0 0 4 0 0 0 3 11 63 80 165 102 94 20 42 60 228 393 343 739 1195 1122 806 524 54 0 0 0 0 0 0 0 0
795 959 816 562 853 929 730 851 726 482 0 0 0 65 11 0 0 0 0 34 147 70 56 39 61 95 120 161 139 417 1013 721 702 0 0 0 0 0 0 0 0 0 0
767 977 1021 814 871 1193 1092 949 569 434 32 0 0 0 11 0 0 0 0 0 22 23 13 31 63 150 114 81 9 27 723 529 49 34 3 0 0 0 0 0 0 0 0
702 926 1081 981 912 945 1151 1023 665 485 334 0 0 0 2 1 0 0 0 0 0 0 0 0 6 168 155 86 16 25 382 267 0 18 12 38 21 0 0 0 0 0 0
664 742 1019 1045 1140 983 1030 1061 1002 1030 849 183 0 0 0 0 0 0 0 0 4 19 12 9 16 166 236 128 67 60 145 98 0 0 0 0 34 131 200 102 4 0 0
360 597 865 1047 999 1102 1154 1150 945 932 1151 676 440 44 32 0 0 6 27 10 11 17 24 15 37 86 157 195 84 4 0 0 0 0 0 0 0 1 22 60 55 25 0
437 323 568 1106 1207 1215 1386 1305 1059 948 1228 1195 662 612 204 74 105 147 65 39 25 32 22 38 49 62 61 64 86 43 5 15 0 0 0 0 0 0 0 0 0 0 0
433 470 525 700 1002 1332 1545 1558 1174 1168 1180 1344 1334 706 685 585 109 73 199 157 47 27 28 32 46 76 88 114 51 27 17 23 20 0 0 0 0 0 0 0 0 0 0
485 672 737 895 1045 1111 1362 1594 1345 1345 1323 1407 1453 1520 1118 626 615 378 136 179 264 157 60 48 19 37 62 100 42 34 23 11 28 7 2 0 0 0 0 0 0 0 0
680 431 837 972 1215 1288 1306 1460 1517 1393 1626 1620 1825 1767 1783 1701 1242 693 283 146 166 225 198 154 97 43 1 18 15 20 30 14 30 34 17 2 0 0 0 2 0 0 0
736 864 1067 988 1095 1311 1385 1361 1385 1542 1429 1604 1755 1959 1870 1817 1775 1760 1625 1250 252 69 160 179 188 133 82 65 31 5 9 21 1 20 29 12 1 10 0 11 7 1 0
1332 1133 881 858 1171 1273 1467 1505 1527 1562 1605 1503 1692 1863 1940 1963 1881 1800 1867 1831 1576 914 50 11 151 245 151 60 66 56 38 12 1 1 4 36 4 1 4 20 1 9 5
1279 1395 1459 1240 1180 1264 1340 1453 1589 1660 1660 1626 1522 1592 1705 1823 1908 1897 1692 1586 1658 1645 1478 928 233 56 173 187 86 50 19 6 13 17 9 24 24 3 41 39 24 1 8
1470 1213 1055 1089 1348 1509 1670 1686 1724 1662 1768 1744 1654 1631 1674 1877 1907 1925 1942 1910 1781 1759 1668 1692 1629 1298 827 163 44 59 27 15 17 31 6 18 18 34 15 30 55 17 20
1197 1562 1535 1227 1283 1396 1744 1965 2003 1949 1985 2006 1867 1734 1750 1757 1832 1879 1905 2048 2051 2052 2078 1768 1532 1381 1173 1035 807 387 69 22 19 22 20 9 53 31 56 24 18 13 15
1576 1458 1389 1647 1679 1680 1718 1907 2142 2129 1999 2063 2054 2030 2036 2042 2067 2083 2082 2083 2068 2002 1856 1791 1746 1642 1595 1616 1643 1478 1127 851 598 295 26 2 16 95 95 52 71 87 53
2051 1894 1779 1631 1454 1693 1908 2091 2192 2267 2200 2194 2181 2224 2280 2298 2308 2350 2419 2483 2492 2468 2404 2368 2211 2055 1937 1856 1841 1863 1786 1592 1284 987 535 54 26 34 221 129 91 126 77
2234 2305 2325 2262 2122 1969 1760 1931 2009 2066 2020 2098 2203 2346 2430 2469 2507 2577 2675 2735 2803 2733 2571 2500 2501 2454 2452 2439 2356 2240 2119 1874 1812 1574 1244 760 165 21 104 158 106 45 77
CIN
-57 -53 -99 -66 -80 -53 -30 -37 -46 -31 -88 -61 -19 -70 -74 -34 -140 -75 -8 0 0 0 -7 -28 -25 -12 -2 0 0 0 0 0 0 0 -1 0 -1 -1 -3 -2 -2 -3 0
-93 -26 -37 -26 -35 -44 -28 -23 -48 -46 -81 -71 -56 -56 -62 -37 -125 -74 -21 -1 -1 0 0 -1 -11 -18 -6 -3 -2 -12 -1 0 0 -1 -2 -1 -2 -1 0 0 0 0 0
-44 -61 -45 -34 -21 -29 -16 -20 -38 -50 -43 -38 -64 -46 -38 -50 -128 -92 -59 -24 -3 0 -1 0 0 0 0 0 0 0 0 -14 -12 -5 -2 -3 -1 -1 0 0 0 0 0
-75 -104 -44 -43 -24 -36 -48 -54 -41 -44 -52 -38 -27 -40 -42 -47 -137 -116 -79 -52 -21 -5 -1 0 -1 -1 0 0 0 -1 0 0 0 0 0 0 -1 0 0 0 0 0 0
-65 -63 -38 -49 -54 -31 -54 -44 -34 -44 -59 -53 -20 -34 -40 -29 -13 -147 -121 -120 -73 -44 -26 -9 -6 -4 0 -1 -2 -4 -1 0 0 0 0 -1 -1 0 0 0 -1 -1 -2
-50 -68 -46 -41 -41 -38 -40 -49 -24 -26 -65 -41 -33 -33 -39 -57 -22 -94 -49 -125 -143 -79 -57 -48 -33 -38 -11 -2 0 -2 -3 -3 -2 -1 -1 -2 -2 -3 -4 -9 -12 -10 -6
-40 -71 -45 -42 -53 -37 -34 -25 -73 -33 -14 -16 -36 -14 -15 -26 -50 -105 -31 -49 -185 -112 -99 -75 -64 -61 -46 -9 -10 -9 -6 -1 -2 -4 -6 -4 -3 -2 -4 -9 -9 -12 -18
-35 -48 -70 -56 -35 -27 -26 -13 -39 -80 -1 -15 -4 -4 -7 -6 -37 -40 -83 -66 -74 -116 -125 -180 -138 -106 -75 -49 -48 -22 -17 -9 -1 -10 -13 -24 -38 -67 -81 0 0 0 0
-68 -51 -64 -34 -23 -32 -34 -27 -21 -27 0 0 -18 0 0 0 -31 -40 -88 -122 -46 -119 -124 -194 -115 -167 -91 -66 -91 -44 -16 -18 -20 -30 -76 0 0 0 0 0 0 0 0
-86 -69 -60 -78 -30 -37 -31 -10 -24 -19 0 0 0 -40 -21 0 0 0 0 -115 -55 -120 -122 -142 -110 -105 -132 -107 -173 -97 -39 -55 -37 0 0 0 0 0 0 0 0 0 0
-90 -88 -52 -51 -65 -28 -20 -14 -51 -37 -22 0 0 0 -24 0 0 0 0 0 -115 -129 -177 -164 -159 -83 -129 -180 -268 -318 -75 -86 -177 -160 -43 0 0 0 0 0 0 0 0
-95 -76 -52 -40 -36 -44 -30 -13 -20 -69 -28 0 0 0 -24 -17 0 0 0 0 0 0 0 0 -259 -105 -114 -160 -213 -355 -122 -112 0 -235 -127 -137 -108 0 0 0 0 0 0
-123 -109 -69 -43 -28 -34 -45 -23 -16 -43 -27 -81 0 0 0 0 0 0 0 0 -106 -157 -199 -191 -272 -173 -146 -180 -208 -316 -229 -245 0 0 0 -6 -165 -82 -41 -63 -50 0 0
-101 -101 -57 -53 -46 -35 -32 -24 -18 -44 -25 -80 -105 -149 -160 0 0 -219 -148 -170 -176 -194 -162 -201 -165 -263 -241 -244 -254 -164 0 0 0 0 0 0 0 -30 -178 -90 -80 -104 0
-90 -171 -97 -95 -64 -51 -16 -22 -24 -53 -58 -44 -111 -105 -170 -233 -230 -196 -185 -177 -177 -185 -190 -226 -211 -188 -172 -301 -322 -307 -194 -260 0 0 0 0 0 0 0 0 0 0 0
-100 -188 -176 -139 -102 -80 -33 -14 -43 -46 -34 -74 -62 -128 -175 -176 -240 -264 -234 -223 -219 -247 -241 -216 -215 -197 -176 -182 -228 -325 -327 -278 -273 0 0 0 0 0 0 0 0 0 0
-102 -165 -127 -130 -113 -106 -67 -26 -41 -66 -46 -48 -72 -74 -122 -179 -199 -244 -277 -268 -236 -240 -268 -231 -260 -318 -283 -216 -221 -285 -300 -324 -246 -187 -171 0 0 0 0 0 0 0 0
-120 -130 -127 -91 -100 -107 -83 -48 -32 -43 -65 -50 -41 -52 -83 -78 -125 -190 -275 -302 -265 -227 -232 -216 -224 -270 -22 -320 -270 -364 -233 -359 -297 -191 -220 -236 0 0 0 -141 0 0 0
-126 -104 -66 -94 -118 -113 -99 -85 -70 -34 -60 -93 -70 -43 -66 -73 -88 -92 -91 -131 -295 -164 -217 -296 -241 -241 -262 -392 -368 -223 -355 -253 -70 -213 -115 -219 -56 -249 -24 -120 -89 -51 -2
-100 -100 -123 -150 -86 -124 -102 -91 -83 -73 -58 -67 -114 -91 -79 -72 -83 -94 -80 -77 -86 -153 -154 -199 -366 -311 -281 -291 -421 -358 -338 -316 -108 -62 -228 -104 -255 -51 -214 -115 -32 -81 -83
-199 -149 -114 -126 -194 -110 -152 -140 -121 -107 -81 -87 -129 -146 -141 -133 -117 -100 -106 -128 -102 -98 -102 -153 -237 -521 -380 -306 -345 -336 -309 -319 -335 -275 -250 -219 -89 -138 -177 -133 -108 -29 -44
-256 -256 -260 -234 -229 -199 -160 -114 -64 -61 -125 -126 -149 -160 -165 -153 -143 -129 -117 -123 -125 -115 -109 -95 -106 -145 -212 -272 -416 -298 -310 -331 -381 -296 -257 -249 -126 -113 -131 -190 -88 -51 -39
-336 -284 -275 -294 -302 -292 -218 -176 -142 -90 -73 -72 -72 -132 -151 -173 -167 -168 -167 -141 -115 -113 -96 -101 -123 -166 -195 -189 -162 -204 -337 -366 -362 -370 -304 -312 -109 -78 -55 -61 -86 -30 -12
-337 -350 -358 -319 -299 -308 -295 -240 -182 -141 -142 -146 -139 -140 -128 -137 -124 -112 -95 -103 -114 -153 -149 -136 -116 -198 -175 -123 -85 -73 -82 -87 -129 -191 -285 -354 -342 -70 -32 -24 -1 -17 -16
-334 -357 -354 -350 -381 -369 -313 -262 -197 -165 -180 -189 -189 -184 -187 -187 -180 -132 -102 -107 -119 -183 -114 -99 -108 -100 -100 -107 -97 -23 -29 -5 -53 -105 -101 -215 -312 -188 -26 -29 -8 -1 -21
-361 -330 -323 -329 -316 -318 -226 -325 -264 -230 -253 -233 -225 -228 -218 -222 -182 -136 -98 -86 -135 -179 -94 -128 -148 -127 -82 -69 -25 -15 -12 0 0 0 -61 -13 -32 -186 -24 -28 -17 -6 -16
Wind_Speed
10 11 13 11 9 9 9 11 10 11 13 nan 13 14 11 9 8 10 10 13 13 11 10 12 14 15 16 16 16 17 18 17 18 18 20 17 18 18 20 21 23 24 18
11 12 12 11 9 9 5 6 10 7 10 nan 10 10 7 9 7 6 8 10 16 12 13 13 15 15 15 15 17 18 17 17 17 16 15 14 15 19 20 20 24 28 29
12 12 11 10 7 5 3 3 6 6 nan nan nan 8 6 4 5 8 7 9 8 15 15 15 17 17 17 19 20 20 20 19 16 16 16 17 18 17 17 19 21 23 25
13 12 10 8 7 8 7 6 5 8 nan nan nan nan 5 nan nan 5 6 8 9 13 13 19 20 18 19 18 18 19 20 19 18 17 18 18 18 16 17 19 20 20 22
13 10 10 8 9 11 14 12 10 11 nan nan nan nan nan nan nan nan 9 10 11 12 11 15 17 16 20 20 19 20 20 19 17 17 17 17 19 18 19 20 22 23 23
10 9 8 9 10 16 19 16 14 13 14 nan nan nan nan nan nan nan 10 nan 12 13 11 10 9 14 20 23 22 20 17 17 15 15 13 13 15 15 16 15 14 14 14
10 9 9 14 15 16 20 18 nan nan nan nan nan nan nan nan nan nan nan 9 nan nan 10 10 10 11 12 19 18 18 18 14 11 9 7 4 3 4 3 3 4 4 4
10 11 10 13 15 15 17 18 16 nan nan nan nan nan nan nan nan nan nan 13 13 nan nan nan 12 13 15 15 18 17 17 17 14 12 10 10 8 5 nan nan nan nan nan
9 11 11 11 13 13 16 17 13 nan nan nan nan nan nan nan nan nan nan nan 12 10 nan nan nan nan 16 18 20 20 19 18 19 15 nan nan nan nan nan nan nan nan nan
8 11 11 10 10 11 13 15 11 9 nan nan nan nan nan nan nan nan nan nan 10 nan nan nan nan nan 17 18 21 22 23 22 20 nan nan nan nan nan nan nan nan nan nan
7 9 10 10 10 10 12 12 7 7 nan nan nan nan nan nan nan nan nan nan nan nan nan nan nan 19 19 nan nan nan 25 26 nan nan nan nan nan nan nan nan nan nan nan
5 7 8 9 11 10 10 9 7 7 6 nan nan nan nan nan nan nan nan nan nan nan nan nan nan 19 19 nan nan nan 28 28 nan nan nan nan nan nan nan nan nan nan nan
4 5 6 6 8 10 10 9 10 8 7 6 nan nan nan nan nan nan nan nan nan nan nan nan nan 18 20 21 nan nan 31 nan nan nan nan nan nan 28 28 26 nan nan nan
3 3 5 5 7 8 8 10 10 11 11 8 9 nan nan nan nan nan nan nan nan nan nan nan nan nan 20 22 nan nan nan nan nan nan nan nan nan nan nan nan nan nan nan
4 3 5 6 6 9 9 10 10 12 12 13 10 9 9 nan 8 8 nan nan nan nan nan nan nan nan nan nan nan nan nan nan nan nan nan nan nan nan nan nan nan nan nan
5 8 7 8 10 11 12 12 10 10 11 10 11 10 8 7 11 nan 12 11 nan nan nan nan nan nan nan 18 nan nan nan nan nan nan nan nan nan nan nan nan nan nan nan
7 10 14 12 13 13 12 11 11 11 11 9 9 10 8 6 6 9 9 8 10 11 nan nan nan nan nan 21 nan nan nan nan nan nan nan nan nan nan nan nan nan nan nan
11 14 16 15 11 10 13 13 11 13 14 12 11 7 7 6 7 8 8 12 13 14 13 12 nan nan nan nan nan nan nan nan nan nan nan nan nan nan nan nan nan nan nan
13 11 10 10 9 9 10 12 11 10 13 12 10 7 7 6 7 9 12 12 13 nan 16 16 15 16 nan nan nan nan nan nan nan nan nan nan nan nan nan nan nan nan nan
6 5 2 1 3 3 4 6 8 9 7 6 6 7 8 7 11 11 10 12 11 12 nan nan 20 22 25 nan nan nan nan nan nan nan nan nan nan nan nan nan nan nan nan
1 3 5 3 2 2 1 3 4 5 5 6 7 9 10 12 15 13 8 9 12 14 14 17 17 nan 24 28 nan nan nan nan nan nan nan nan nan nan nan nan nan nan nan
3 3 1 2 4 4 5 9 7 4 7 9 10 10 11 12 13 16 18 17 16 16 17 21 19 22 23 27 nan nan nan nan nan nan nan nan nan nan nan nan nan nan nan
3 2 4 5 6 6 6 10 12 5 7 8 9 7 4 6 11 11 15 17 17 22 29 26 25 26 24 29 34 37 nan nan nan nan nan nan nan nan nan nan nan nan nan
2 2 3 1 3 4 4 8 9 6 6 3 2 3 6 7 9 16 17 19 19 22 26 28 29 27 30 33 40 43 44 45 42 43 nan nan nan nan nan nan nan nan nan
4 2 1 1 2 1 5 10 14 7 2 0 4 5 7 8 11 22 21 20 18 17 25 29 32 33 32 38 42 47 48 54 51 49 54 nan nan nan 74 52 nan 61 nan
8 10 7 4 4 3 9 13 20 13 7 9 8 7 13 14 18 25 26 25 21 19 25 26 30 31 33 35 45 50 49 58 54 55 55 61 61 nan 66 65 68 nan nan
Wind_Direction
80 84 89 84 83 78 73 101 106 115 102 nan 88 77 86 88 88 97 102 51 52 38 23 20 22 22 21 21 23 28 25 30 37 42 46 50 50 49 51 52 52 58 72
74 78 76 76 78 74 80 101 100 93 117 nan 99 80 84 86 96 86 81 68 44 32 28 32 37 38 41 37 35 37 36 38 43 50 61 65 62 61 62 60 62 67 72
66 61 62 57 47 52 53 80 146 126 nan nan nan 110 87 86 74 67 68 86 67 41 41 38 48 42 39 37 37 43 44 49 52 59 63 65 66 71 72 74 75 77 79
68 51 39 41 48 55 79 100 116 140 nan nan nan nan 112 nan nan 59 53 52 52 64 52 43 41 38 40 43 48 42 45 45 51 65 75 78 78 77 79 80 81 81 77
62 54 46 35 43 64 65 73 102 112 nan nan nan nan nan nan nan nan 43 48 56 69 58 51 38 37 45 44 48 54 49 45 51 67 76 85 92 88 86 88 92 90 88
59 56 77 77 77 67 58 63 87 111 122 nan nan nan nan nan nan nan 56 nan 68 71 67 48 39 39 43 47 39 43 46 47 48 55 72 88 95 99 96 103 105 99 85
69 54 71 61 62 60 61 66 nan nan nan nan nan nan nan nan nan nan nan 65 nan nan 64 58 40 35 34 39 32 35 38 34 33 22 26 33 113 118 131 140 106 66 13
72 68 53 59 57 60 63 63 74 nan nan nan nan nan nan nan nan nan nan 70 61 nan nan nan 43 36 36 38 37 34 37 30 19 19 9 356 350 342 nan nan nan nan nan
59 70 63 61 61 60 57 68 58 nan nan nan nan nan nan nan nan nan nan nan 66 75 nan nan nan nan 50 53 54 50 41 31 25 20 nan nan nan nan nan nan nan nan nan
60 62 60 56 59 70 63 65 57 63 nan nan nan nan nan nan nan nan nan nan 66 nan nan nan nan nan 49 47 49 46 50 45 48 nan nan nan nan nan nan nan nan nan nan
60 47 51 41 43 54 63 63 55 58 nan nan nan nan nan nan nan nan nan nan nan nan nan nan nan 37 38 nan nan nan 34 37 nan nan nan nan nan nan nan nan nan nan nan
78 43 36 35 41 40 32 40 43 37 66 nan nan nan nan nan nan nan nan nan nan nan nan nan nan 30 20 nan nan nan 29 26 nan nan nan nan nan nan nan nan nan nan nan
129 56 11 18 22 27 21 11 9 17 24 35 nan nan nan nan nan nan nan nan nan nan nan nan nan 19 17 16 nan nan 24 nan nan nan nan nan nan 21 19 15 nan nan nan
114 35 1 3 1 355 358 358 9 10 3 15 20 nan nan nan nan nan nan nan nan nan nan nan nan nan 14 13 nan nan nan nan nan nan nan nan nan nan nan nan nan nan nan
240 285 313 328 319 316 325 336 346 359 4 2 5 6 18 nan 48 44 nan nan nan nan nan nan nan nan nan nan nan nan nan nan nan nan nan nan nan nan nan nan nan nan nan
250 277 289 298 294 301 313 320 323 328 343 343 347 0 20 11 26 nan 24 23 nan nan nan nan nan nan nan 17 nan nan nan nan nan nan nan nan nan nan nan nan nan nan nan
265 270 277 278 283 295 299 303 305 310 331 330 333 358 22 2 22 30 23 16 22 360 nan nan nan nan nan 3 nan nan nan nan nan nan nan nan nan nan nan nan nan nan nan
276 282 279 284 283 286 289 301 314 320 327 332 344 352 31 324 12 8 6 13 16 9 357 9 nan nan nan nan nan nan nan nan nan nan nan nan nan nan nan nan nan nan nan
276 294 286 287 282 275 278 296 315 316 317 332 339 354 34 352 358 354 349 359 0 nan 344 344 347 340 nan nan nan nan nan nan nan nan nan nan nan nan nan nan nan nan nan
300 300 324 331 316 295 306 323 324 326 334 354 26 43 47 30 35 25 3 0 359 356 nan nan 344 344 345 nan nan nan nan nan nan nan nan nan nan nan nan nan nan nan nan
226 284 291 3 3 330 308 352 355 15 54 69 78 69 60 51 44 35 6 1 355 4 352 355 356 nan 335 329 nan nan nan nan nan nan nan nan nan nan nan nan nan nan nan
186 219 269 40 78 126 34 18 20 61 86 84 81 78 69 50 43 24 17 19 348 348 346 338 349 357 355 339 nan nan nan nan nan nan nan nan nan nan nan nan nan nan nan
218 196 128 113 105 94 31 26 29 93 112 90 80 77 28 352 3 352 354 9 2 0 359 344 349 354 347 335 333 330 nan nan nan nan nan nan nan nan nan nan nan nan nan
205 153 107 107 115 135 355 1 1 57 117 97 71 23 18 11 340 324 325 330 338 354 343 332 344 347 335 328 328 331 330 330 328 317 nan nan nan nan nan nan nan nan nan
231 276 267 233 89 145 336 337 306 287 203 287 293 316 315 326 320 313 318 325 334 350 319 333 338 345 342 331 330 316 322 316 326 321 314 nan nan nan 303 290 nan 309 nan
217 229 239 254 285 267 294 325 327 306 311 260 269 300 317 323 305 310 310 313 328 319 309 314 311 323 331 332 322 324 320 315 317 313 315 310 305 nan 304 301 299 nan nan